Location: Newark
(35.6799°N, 139.7636°E)
Time: 08:42:15
(UTC+00:00)

Transit 2A - All Passes

Search period start: 06 December 2019 00:00
Search period end: 16 December 2019 00:00
Orbit: 602 x 957 km, 66.7° (Epoch: 05 December)

Date Brightness Start Highest point End Pass type
(mag) Time Alt. Az. Time Alt. Az. Time Alt. Az.
06 Dec - 07:48:00 10° NNW 07:52:28 76° ENE 07:57:15 10° SSE visible
06 Dec - 20:45:41 10° SE 20:47:22 12° ESE 20:49:00 10° E visible
06 Dec - 22:25:07 10° SW 22:30:04 63° WNW 22:34:37 10° NNE daylight
07 Dec - 07:14:02 10° NNW 07:18:20 47° ENE 07:22:56 10° SE daylight
07 Dec - 08:58:35 10° WNW 09:01:07 15° WSW 09:03:43 10° SW visible
07 Dec - 21:50:56 10° SSW 21:55:57 82° ESE 22:00:33 10° NNE daylight
07 Dec - 23:38:21 10° WNW 23:39:33 11° NW 23:40:43 10° NNW daylight
08 Dec - 06:40:12 10° N 06:44:09 30° ENE 06:48:19 10° ESE daylight
08 Dec - 08:23:31 10° WNW 08:27:07 23° WSW 08:30:56 10° SSW visible
08 Dec - 21:17:01 10° S 21:21:52 51° ESE 21:26:20 10° NE daylight
08 Dec - 23:02:12 10° W 23:05:12 16° NW 23:08:05 10° NNW daylight
09 Dec - 06:06:35 10° N 06:09:55 20° NE 06:13:23 10° ESE daylight
09 Dec - 07:48:56 10° NW 07:53:06 37° WSW 07:57:33 10° S visible
09 Dec - 20:43:24 10° S 20:47:50 32° ESE 20:51:56 10° NE visible
09 Dec - 22:27:00 10° WSW 22:30:56 24° NW 22:34:39 10° N daylight
10 Dec - 05:33:22 10° NNE 05:35:37 13° NE 05:37:55 10° E daylight
10 Dec - 07:14:36 10° NW 07:19:02 60° WSW 07:23:49 10° SSE daylight
10 Dec - 20:10:10 10° SSE 20:13:49 20° ESE 20:17:15 10° ENE visible
10 Dec - 21:52:12 10° SW 21:56:43 36° WNW 22:00:55 10° N daylight
11 Dec - 06:40:27 10° NNW 06:44:57 84° ENE 06:49:48 10° SSE daylight
11 Dec - 19:37:43 10° SE 19:39:50 13° ESE 19:41:53 10° E visible
11 Dec - 21:17:43 10° SW 21:22:34 57° WNW 21:27:02 10° NNE daylight
12 Dec - 06:06:27 10° NNW 06:10:49 52° ENE 06:15:32 10° SE daylight
12 Dec - 07:51:20 10° WNW 07:53:34 13° WSW 07:55:53 10° SW visible
12 Dec - 20:43:29 10° SSW 20:48:27 90° E 20:53:00 10° NNE visible
13 Dec - 05:32:34 10° N 05:36:39 33° ENE 05:40:59 10° ESE daylight
13 Dec - 07:16:06 10° WNW 07:19:35 22° WSW 07:23:16 10° SSW daylight
13 Dec - 20:09:30 10° SSW 20:14:21 56° ESE 20:18:50 10° NE visible
13 Dec - 21:55:04 10° W 21:57:44 15° NW 22:00:18 10° NNW daylight
14 Dec - 04:58:54 10° N 05:02:26 22° NE 05:06:08 10° ESE daylight
14 Dec - 06:41:27 10° NW 06:45:34 34° WSW 06:49:59 10° S daylight
14 Dec - 19:35:49 10° S 19:40:18 35° ESE 19:44:28 10° NE visible
14 Dec - 21:19:44 10° WSW 21:23:26 22° NW 21:26:58 10° N daylight
15 Dec - 04:25:32 10° NNE 04:28:09 15° NE 04:30:49 10° E daylight
15 Dec - 06:07:04 10° NW 06:11:30 55° WSW 06:16:18 10° S daylight
15 Dec - 19:02:30 10° SSE 19:06:17 22° ESE 19:09:50 10° ENE visible
15 Dec - 20:44:52 10° WSW 20:49:12 33° WNW 20:53:18 10° N visible
